EW9434 Weather Reports


Display with metric or nautical units.
time (UTC)temp
F
wind
direction
speed
MPH
gust
MPH
rain 1hr
in
rain 24hr
in
rain mn
in
humidity
%
barometer
mb
20260831082400 76 263 1.0 3.0 0.00 0.00 0.00 77 1017.2
20260831081900 76 262 1.0 3.0 0.00 0.00 0.00 77 1017.1
20260831081505 75 262 1.0 3.0 0.00 0.00 0.00 77 1015.5
20260831081343 76 260 1.0 2.0 0.00 0.00 0.00 77 1017.0
20260831080844 76 260 1.0 3.0 0.00 0.00 0.00 77 1016.8
20260831080325 76 260 1.0 2.0 0.00 0.00 0.00 77 1016.8
20260831080041 75 259 1.0 2.0 0.00 0.00 0.00 77 1015.4
20260831075823 76 259 1.0 2.0 0.00 0.00 0.00 77 1016.8
20260831075325 76 259 1.0 3.0 0.00 0.00 0.00 77 1016.8
20260831074800 76 259 1.0 3.0 0.00 0.00 0.00 77 1017.0
20260831074532 76 259 1.0 3.0 0.00 0.00 0.00 77 1015.5
20260831074257 76 257 1.0 2.0 0.00 0.00 0.00 77 1017.0
20260831073758 76 257 1.0 2.0 0.00 0.00 0.00 77 1016.8
20260831073255 76 257 1.0 2.0 0.00 0.00 0.00 77 1017.0
20260831073013 76 257 1.0 2.0 0.00 0.00 0.00 77 1015.6
20260831072756 76 257 0.0 2.0 0.00 0.00 0.00 77 1017.1
20260831072255 76 256 0.0 1.0 0.00 0.00 0.00 77 1017.2
20260831071739 76 256 0.0 2.0 0.00 0.00 0.00 77 1017.3
20260831071551 76 256 0.0 1.0 0.00 0.00 0.00 77 1015.8
20260831071205 76 256 0.0 1.0 0.00 0.00 0.00 77 1017.3
20260831070638 76 256 0.0 2.0 0.00 0.00 0.00 77 1017.2
20260831070110 76 256 0.0 1.0 0.00 0.00 0.00 77 1017.3
20260831070055 76 256 0.0 2.0 0.00 0.00 0.00 77 1015.9
20260831065804 76 256 0.0 0.0 0.00 0.00 0.00 78 1017.4
20260831065041 76 256 0.0 2.0 0.00 0.00 0.00 78 1017.4
20260831064541 76 256 1.0 2.0 0.00 0.00 0.00 77 1017.4
20260831064509 76 256 0.0 2.0 0.00 0.00 0.00 77 1016.0
20260831064034 77 256 1.0 2.0 0.00 0.00 0.00 77 1017.5
20260831063534 77 255 1.0 2.0 0.00 0.00 0.00 76 1017.6
20260831063111 76 255 0.0 2.0 0.00 0.00 0.00 76 1016.2
20260831063029 77 255 0.0 2.0 0.00 0.00 0.00 76 1017.7
20260831062503 77 254 0.0 1.0 0.00 0.00 0.00 75 1017.7
20260831062152 77 254 0.0 1.0 0.00 0.00 0.00 75 1017.9
20260831061607 77 254 0.0 1.0 0.00 0.00 0.00 75 1016.5
20260831061431 77 254 0.0 1.0 0.00 0.00 0.00 75 1018.0
20260831060929 77 254 0.0 0.0 0.00 0.00 0.00 75 1018.0
20260831060404 77 254 0.0 0.0 0.00 0.00 0.00 75 1018.0
20260831060041 77 254 0.0 0.0 0.00 0.00 0.00 75 1016.7
20260831055902 77 254 0.0 0.0 0.00 0.00 0.00 75 1018.1
20260831055334 77 254 0.0 0.0 0.00 0.00 0.00 75 1018.1
20260831054833 77 255 0.0 0.0 0.00 0.00 0.00 75 1017.9
20260831054545 77 254 0.0 0.0 0.00 0.00 0.00 75 1016.5
20260831054306 77 254 0.0 1.0 0.00 0.00 0.00 74 1017.9
20260831053741 77 254 0.0 1.0 0.00 0.00 0.00 74 1017.8
20260831053227 77 255 0.0 0.0 0.00 0.00 0.00 74 1017.9
20260831053028 77 255 0.0 0.0 0.00 0.00 0.00 74 1016.6
20260831052731 77 255 0.0 0.0 0.00 0.00 0.00 74 1018.0
20260831052201 77 255 0.0 0.0 0.00 0.00 0.00 74 1018.0
20260831051658 77 255 0.0 1.0 0.00 0.00 0.00 74 1018.0
20260831051536 77 255 0.0 1.0 0.00 0.00 0.00 74 1016.6
20260831051129 77 255 0.0 1.0 0.00 0.00 0.00 74 1018.0
20260831050625 77 255 0.0 0.0 0.00 0.00 0.00 73 1018.0
20260831050123 78 255 0.0 1.0 0.00 0.00 0.00 73 1017.9
20260831050036 77 255 0.0 1.0 0.00 0.00 0.00 73 1016.5
20260831045625 78 255 0.0 1.0 0.00 0.00 0.00 73 1017.7
20260831045057 78 255 0.0 1.0 0.00 0.00 0.00 73 1017.7
20260831044545 77 255 0.0 1.0 0.00 0.00 0.00 73 1016.3
20260831044527 78 255 0.0 1.0 0.00 0.00 0.00 73 1017.7
20260831044027 78 255 0.0 1.0 0.00 0.00 0.00 73 1017.7
20260831043457 78 255 0.0 0.0 0.00 0.00 0.00 72 1017.8
20260831043040 77 255 0.0 0.0 0.00 0.00 0.00 72 1016.5
20260831042956 78 255 0.0 0.0 0.00 0.00 0.00 72 1017.9
20260831042651 78 255 0.0 0.0 0.00 0.00 0.00 71 1017.9
20260831041904 78 255 0.0 0.0 0.00 0.00 0.00 71 1018.0
20260831041503 78 255 0.0 0.0 0.00 0.00 0.00 71 1016.5
20260831041336 78 255 0.0 1.0 0.00 0.00 0.00 71 1017.9
20260831040833 78 255 0.0 1.0 0.00 0.00 0.00 71 1017.9
20260831040309 78 255 0.0 1.0 0.00 0.00 0.00 70 1017.9
20260831035809 78 254 0.0 1.0 0.00 0.00 0.00 70 1017.9
20260831035519 79 254 0.0 2.0 0.00 0.00 0.00 70 1017.9
20260831034753 79 254 1.0 2.0 0.00 0.00 0.00 69 1017.9
20260831034528 79 255 0.0 2.0 0.00 0.00 0.00 69 1016.7
20260831034227 79 254 2.0 2.0 0.00 0.00 0.00 69 1018.0
20260831034140 80 254 1.0 2.0 0.00 0.00 0.00 68 1018.0
20260831033159 80 250 1.0 2.0 0.00 0.00 0.00 68 1018.0
20260831033117 80 273 1.0 2.0 0.00 0.00 0.00 67 1018.1
20260831033042 79 251 1.0 2.0 0.00 0.00 0.00 67 1016.7
20260831032106 80 273 1.0 2.0 0.00 0.00 0.00 67 1018.1
20260831031605 80 253 2.0 2.0 0.00 0.00 0.00 67 1018.0
20260831031541 80 253 1.0 2.0 0.00 0.00 0.00 67 1016.7
20260831031058 80 253 2.0 3.0 0.00 0.00 0.00 66 1017.9
20260831030552 80 253 2.0 3.0 0.00 0.00 0.00 66 1017.9
20260831030051 80 253 1.0 2.0 0.00 0.00 0.00 66 1017.8
20260831030022 80 253 1.0 2.0 0.00 0.00 0.00 66 1016.5
20260831025549 80 244 1.0 2.0 0.00 0.00 0.00 65 1017.8
20260831025049 80 273 1.0 3.0 0.00 0.00 0.00 65 1017.9
20260831024555 80 240 1.0 3.0 0.00 0.00 0.00 64 1016.6
20260831024540 81 240 2.0 3.0 0.00 0.00 0.00 64 1017.9
20260831024035 81 241 2.0 3.0 0.00 0.00 0.00 64 1017.9
20260831023516 81 240 1.0 2.0 0.00 0.00 0.00 64 1017.9
20260831023046 80 240 1.0 2.0 0.00 0.00 0.00 64 1016.6
20260831023014 81 273 1.0 2.0 0.00 0.00 0.00 64 1017.9
20260831022512 81 273 0.0 2.0 0.00 0.00 0.00 64 1017.9
20260831022016 81 273 1.0 3.0 0.00 0.00 0.00 64 1017.9
20260831021519 81 273 0.0 2.0 0.00 0.00 0.00 64 1016.6
20260831021449 81 273 1.0 3.0 0.00 0.00 0.00 64 1017.9
20260831020922 81 273 2.0 3.0 0.00 0.00 0.00 64 1017.9
20260831020423 81 273 2.0 3.0 0.00 0.00 0.00 64 1017.9
20260831020029 81 273 2.0 3.0 0.00 0.00 0.00 64 1016.5
20260831015859 81 273 1.0 3.0 0.00 0.00 0.00 64 1017.8
20260831015334 81 193 1.0 2.0 0.00 0.00 0.00 64 1017.9
20260831014833 81 273 1.0 2.0 0.00 0.00 0.00 64 1017.9
20260831014558 81 273 1.0 2.0 0.00 0.00 0.00 63 1016.6
20260831014309 81 273 2.0 2.0 0.00 0.00 0.00 63 1017.8
20260831013757 82 273 2.0 2.0 0.00 0.00 0.00 63 1017.7
20260831013253 82 273 1.0 2.0 0.00 0.00 0.00 62 1017.8
20260831013021 82 273 1.0 2.0 0.00 0.00 0.00 62 1016.5
20260831012753 82 273 0.0 2.0 0.00 0.00 0.00 61 1017.8
20260831012251 82 273 0.0 0.0 0.00 0.00 0.00 60 1017.7
20260831011949 82 273 0.0 0.0 0.00 0.00 0.00 60 1017.7
20260831011601 82 273 0.0 0.0 0.00 0.00 0.00 60 1016.4
20260831011447 83 273 0.0 0.0 0.00 0.00 0.00 59 1017.6
20260831010719 83 273 0.0 1.0 0.00 0.00 0.00 59 1017.6
20260831010219 83 273 0.0 1.0 0.00 0.00 0.00 59 1017.6
20260831010002 82 273 0.0 1.0 0.00 0.00 0.00 59 1016.3
20260831005711 83 273 0.0 1.0 0.00 0.00 0.00 59 1017.6
20260831005154 83 273 1.0 1.0 0.00 0.00 0.00 59 1017.5
20260831004653 83 197 0.0 1.0 0.00 0.00 0.00 59 1017.4
20260831004538 83 197 0.0 1.0 0.00 0.00 0.00 59 1016.1
20260831004135 83 199 0.0 0.0 0.00 0.00 0.00 58 1017.3
20260831003634 83 204 0.0 0.0 0.00 0.00 0.00 58 1017.2
20260831003355 83 203 0.0 1.0 0.00 0.00 0.00 57 1017.2
20260831003101 83 204 0.0 0.0 0.00 0.00 0.00 57 1015.9
20260831002631 84 197 0.0 1.0 0.00 0.00 0.00 57 1017.2
20260831002132 84 197 0.0 1.0 0.00 0.00 0.00 57 1017.3
20260831001616 84 196 0.0 3.0 0.00 0.00 0.00 57 1017.3
20260831001523 84 196 0.0 3.0 0.00 0.00 0.00 57 1015.9
20260831001117 84 196 1.0 3.0 0.00 0.00 0.00 57 1017.2
20260831000559 84 195 0.0 2.0 0.00 0.00 0.00 56 1017.2
20260831000036 84 195 1.0 2.0 0.00 0.00 0.00 56 1017.2
20260831000022 84 195 0.0 2.0 0.00 0.00 0.00 56 1015.8
20260830235737 84 195 1.0 2.0 0.00 0.00 0.00 56 1017.2
20260830234953 84 196 1.0 2.0 0.00 0.00 0.00 56 1017.2
20260830234530 84 195 0.0 2.0 0.00 0.00 0.00 56 1015.8
20260830234431 85 195 1.0 2.0 0.00 0.00 0.00 56 1017.2
20260830233930 85 196 1.0 3.0 0.00 0.00 0.00 56 1017.1
20260830233425 85 197 2.0 5.0 0.00 0.00 0.00 55 1017.1
20260830233051 85 201 1.0 4.0 0.00 0.00 0.00 56 1015.7
20260830232901 85 201 2.0 5.0 0.00 0.00 0.00 55 1017.1
20260830232343 85 203 2.0 5.0 0.00 0.00 0.00 55 1017.0
20260830231843 86 202 2.0 5.0 0.00 0.00 0.00 54 1016.8
20260830231605 86 178 1.0 5.0 0.00 0.00 0.00 54 1015.5
20260830231334 86 186 2.0 8.0 0.00 0.00 0.00 54 1016.7
20260830230836 87 145 3.0 8.0 0.00 0.00 0.00 53 1016.7
20260830230543 87 208 2.0 8.0 0.00 0.00 0.00 52 1016.6
20260830230044 87 129 2.0 8.0 0.00 0.00 0.00 52 1015.3
20260830225813 87 159 2.0 8.0 0.00 0.00 0.00 51 1016.5
20260830225254 87 198 2.0 6.0 0.00 0.00 0.00 54 1016.4
20260830224739 87 165 2.0 6.0 0.00 0.00 0.00 53 1016.4
20260830224537 87 172 2.0 6.0 0.00 0.00 0.00 54 1015.2
20260830224240 87 179 2.0 6.0 0.00 0.00 0.00 53 1016.5
20260830223740 87 83 3.0 9.0 0.00 0.00 0.00 53 1016.5
20260830223239 86 205 2.0 9.0 0.00 0.00 0.00 52 1016.6
20260830223026 86 202 2.0 8.0 0.00 0.00 0.00 53 1015.4
20260830223006 86 181 3.0 7.0 0.00 0.00 0.00 52 1016.5
20260830222218 86 172 3.0 7.0 0.00 0.00 0.00 53 1016.6
20260830221716 86 194 2.0 8.0 0.00 0.00 0.00 53 1016.5
20260830221533 86 197 2.0 7.0 0.00 0.00 0.00 53 1015.2
20260830221219 86 184 3.0 8.0 0.00 0.00 0.00 53 1016.5
20260830220937 86 155 3.0 10.0 0.00 0.00 0.00 52 1016.4
20260830220151 86 182 3.0 10.0 0.00 0.00 0.00 51 1016.5
20260830220012 85 180 3.0 10.0 0.00 0.00 0.00 51 1015.2
20260830215624 86 213 2.0 7.0 0.00 0.00 0.00 52 1016.6
20260830215122 86 109 2.0 7.0 0.00 0.00 0.00 53 1016.6
20260830214614 86 150 3.0 7.0 0.00 0.00 0.00 53 1016.6
20260830214519 86 158 2.0 7.0 0.00 0.00 0.00 52 1015.3
20260830214110 86 160 3.0 7.0 0.00 0.00 0.00 53 1016.6
20260830213608 87 159 2.0 6.0 0.00 0.00 0.00 50 1016.6
20260830213106 87 190 2.0 6.0 0.00 0.00 0.00 49 1016.8
20260830213050 87 178 2.0 6.0 0.00 0.00 0.00 51 1015.5
20260830212540 88 208 3.0 7.0 0.00 0.00 0.00 49 1016.7
20260830212038 88 140 3.0 11.0 0.00 0.00 0.00 48 1016.7
20260830211538 89 146 3.0 11.0 0.00 0.00 0.00 51 1016.6
20260830211522 88 145 4.0 11.0 0.00 0.00 0.00 51 1015.4
20260830211033 88 123 3.0 6.0 0.00 0.00 0.00 52 1016.6
20260830210534 88 148 3.0 5.0 0.00 0.00 0.00 50 1016.7
20260830210045 88 88 2.0 10.0 0.00 0.00 0.00 50 1015.5
20260830210008 88 138 3.0 10.0 0.00 0.00 0.00 50 1016.8
20260830205442 88 153 2.0 10.0 0.00 0.00 0.00 52 1017.1
20260830204914 87 202 1.0 3.0 0.00 0.00 0.00 51 1017.1
20260830204537 87 203 1.0 3.0 0.00 0.00 0.00 54 1015.7
20260830204533 88 203 2.0 3.0 0.00 0.00 0.00 52 1017.2
20260830204417 87 203 2.0 3.0 0.00 0.00 0.00 51 1017.1
20260830203256 89 203 1.0 3.0 0.00 0.00 0.00 49 1017.3
20260830203030 88 203 1.0 3.0 0.00 0.00 0.00 49 1016.0
20260830202236 89 203 2.0 8.0 0.00 0.00 0.00 51 1017.6
20260830201710 89 186 1.0 5.0 0.00 0.00 0.00 51 1017.6
20260830201529 89 187 1.0 5.0 0.00 0.00 0.00 53 1016.3
20260830201144 89 153 2.0 5.0 0.00 0.00 0.00 50 1017.7
20260830200620 89 70 2.0 4.0 0.00 0.00 0.00 48 1017.8
20260830200133 88 181 1.0 4.0 0.00 0.00 0.00 50 1016.6
20260830200114 88 181 2.0 4.0 0.00 0.00 0.00 53 1018.0
20260830195612 88 157 2.0 4.0 0.00 0.00 0.00 52 1018.0
20260830195045 87 121 2.0 5.0 0.00 0.00 0.00 52 1018.0
20260830194542 87 137 2.0 8.0 0.00 0.00 0.00 49 1018.2
20260830194512 87 136 2.0 5.0 0.00 0.00 0.00 49 1016.9
20260830194234 87 217 2.0 8.0 0.00 0.00 0.00 50 1018.3
20260830193451 88 199 2.0 8.0 0.00 0.00 0.00 49 1018.4
20260830193049 88 197 1.0 8.0 0.00 0.00 0.00 50 1017.2
20260830192922 89 197 2.0 8.0 0.00 0.00 0.00 50 1018.5
20260830192420 88 194 2.0 6.0 0.00 0.00 0.00 49 1018.6
20260830192109 88 194 3.0 6.0 0.00 0.00 0.00 50 1018.7
20260830191617 88 180 2.0 5.0 0.00 0.00 0.00 51 1018.8
20260830191543 88 186 2.0 5.0 0.00 0.00 0.00 53 1017.5
20260830191048 89 178 2.0 5.0 0.00 0.00 0.00 50 1018.8
20260830190534 88 156 2.0 5.0 0.00 0.00 0.00 50 1018.9
20260830190004 87 80 3.0 5.0 0.00 0.00 0.00 50 1017.7
20260830185816 88 191 2.0 4.0 0.00 0.00 0.00 56 1019.0
20260830185322 87 192 2.0 7.0 0.00 0.00 0.00 53 1019.2
20260830184806 87 201 3.0 9.0 0.00 0.00 0.00 53 1019.3
20260830184304 87 201 4.0 9.0 0.00 0.00 0.00 53 1019.4
20260830183805 87 225 3.0 9.0 0.00 0.00 0.00 53 1019.4
20260830183303 87 209 4.0 9.0 0.00 0.00 0.00 52 1019.4
20260830183026 87 205 2.0 8.0 0.00 0.00 0.00 53 1018.2
20260830182806 87 207 3.0 7.0 0.00 0.00 0.00 56 1019.5
20260830182306 86 249 3.0 13.0 0.00 0.00 0.00 57 1019.5
20260830181740 86 97 3.0 13.0 0.00 0.00 0.00 57 1019.5
20260830181536 85 172 3.0 13.0 0.00 0.00 0.00 56 1018.3
20260830181237 86 255 4.0 10.0 0.00 0.00 0.00 55 1019.6
20260830180711 87 155 4.0 10.0 0.00 0.00 0.00 57 1019.6
20260830180406 87 195 3.0 8.0 0.00 0.00 0.00 54 1019.7
20260830180054 87 244 2.0 8.0 0.00 0.00 0.00 54 1018.5
20260830175858 87 221 3.0 8.0 0.00 0.00 0.00 55 1019.7
20260830175136 88 201 3.0 8.0 0.00 0.00 0.00 53 1019.8
20260830174859 89 194 4.0 11.0 0.00 0.00 0.00 52 1019.8
20260830174610 88 194 2.0 11.0 0.00 0.00 0.00 51 1018.5
20260830174108 89 110 4.0 11.0 0.00 0.00 0.00 51 1019.8
20260830173541 88 243 4.0 12.0 0.00 0.00 0.00 47 1019.9
20260830173116 88 186 3.0 12.0 0.00 0.00 0.00 52 1018.7
20260830173016 88 215 3.0 12.0 0.00 0.00 0.00 52 1020.0
20260830172732 88 161 3.0 10.0 0.00 0.00 0.00 56 1020.0
20260830172234 87 206 4.0 10.0 0.00 0.00 0.00 55 1020.0
20260830171524 87 153 2.0 10.0 0.00 0.00 0.00 56 1018.7
20260830171445 87 194 4.0 10.0 0.00 0.00 0.00 54 1020.0
20260830170941 87 174 4.0 11.0 0.00 0.00 0.00 53 1020.0
20260830170447 87 209 5.0 11.0 0.00 0.00 0.00 50 1020.0
20260830170315 87 178 4.0 10.0 0.00 0.00 0.00 54 1020.0
20260830170206 87 113 4.0 12.0 0.00 0.00 0.00 52 1020.0
20260830170046 87 223 5.0 10.0 0.00 0.00 0.00 51 1018.8
20260830164819 87 173 4.0 11.0 0.00 0.00 0.00 56 1019.9
20260830164506 86 211 4.0 11.0 0.00 0.00 0.00 54 1018.8
20260830164315 87 209 5.0 11.0 0.00 0.00 0.00 55 1019.9
20260830163752 87 151 5.0 11.0 0.00 0.00 0.00 53 1020.0
20260830163238 87 213 5.0 13.0 0.00 0.00 0.00 53 1019.9
20260830163033 86 209 4.0 13.0 0.00 0.00 0.00 55 1018.7
20260830162741 87 170 5.0 13.0 0.00 0.00 0.00 55 1019.9
20260830162438 87 86 4.0 11.0 0.00 0.00 0.00 54 1019.9
20260830161646 87 190 3.0 10.0 0.00 0.00 0.00 55 1019.8
20260830161604 87 209 3.0 10.0 0.00 0.00 0.00 56 1018.6
20260830161145 87 182 3.0 10.0 0.00 0.00 0.00 59 1019.8
20260830160618 87 189 4.0 10.0 0.00 0.00 0.00 59 1019.7
20260830160114 87 221 3.0 10.0 0.00 0.00 0.00 61 1019.9
20260830160027 86 199 3.0 8.0 0.00 0.00 0.00 59 1018.6
20260830155613 86 134 2.0 7.0 0.00 0.00 0.00 62 1019.9
20260830155044 86 130 3.0 7.0 0.00 0.00 0.00 63 1019.8
20260830154622 85 76 1.0 6.0 0.00 0.00 0.00 64 1018.5
20260830154544 85 74 3.0 7.0 0.00 0.00 0.00 63 1019.7
20260830154013 84 105 3.0 7.0 0.00 0.00 0.00 66 1019.7
20260830153735 84 91 2.0 9.0 0.00 0.00 0.00 66 1019.8
20260830153002 83 122 3.0 9.0 0.00 0.00 0.00 67 1018.5
20260830152944 83 124 2.0 9.0 0.00 0.00 0.00 68 1019.8
20260830152706 83 163 2.0 6.0 0.00 0.00 0.00 70 1019.7
20260830151916 82 179 3.0 6.0 0.00 0.00 0.00 68 1019.7
20260830151516 82 146 2.0 6.0 0.00 0.00 0.00 68 1018.5
20260830151347 82 150 3.0 6.0 0.00 0.00 0.00 69 1019.7
20260830150846 82 132 2.0 6.0 0.00 0.00 0.00 69 1019.6
20260830150807 81 67 3.0 6.0 0.00 0.00 0.00 69 1019.6
20260830150036 81 126 2.0 6.0 0.00 0.00 0.00 70 1018.5
20260830145816 81 159 2.0 5.0 0.00 0.00 0.00 70 1019.7
20260830145314 80 155 2.0 5.0 0.00 0.00 0.00 71 1019.5
20260830144746 80 89 2.0 5.0 0.00 0.00 0.00 70 1019.5
20260830144552 80 90 3.0 5.0 0.00 0.00 0.00 71 1018.2
20260830144506 80 150 2.0 6.0 0.00 0.00 0.00 71 1019.4
20260830143717 79 97 3.0 6.0 0.00 0.00 0.00 72 1019.3
20260830143147 79 128 3.0 5.0 0.00 0.00 0.00 72 1019.3
20260830143125 79 129 3.0 6.0 0.00 0.00 0.00 73 1019.1
20260830143056 78 123 2.0 5.0 0.00 0.00 0.00 72 1018.0
20260830142120 78 145 3.0 6.0 0.00 0.00 0.00 73 1019.1
20260830141618 78 25 3.0 5.0 0.00 0.00 0.00 74 1019.0
20260830141601 78 88 3.0 6.0 0.00 0.00 0.00 74 1019.0
20260830141525 78 24 3.0 5.0 0.00 0.00 0.00 73 1017.8
20260830140550 78 87 2.0 6.0 0.00 0.00 0.00 73 1018.9
20260830140108 77 146 2.0 6.0 0.00 0.00 0.00 75 1017.7
20260830140046 77 146 3.0 7.0 0.00 0.00 0.00 75 1019.0
20260830135544 77 85 2.0 7.0 0.00 0.00 0.00 74 1018.9
20260830135017 77 76 2.0 6.0 0.00 0.00 0.00 75 1018.9
20260830134734 76 75 2.0 6.0 0.00 0.00 0.00 75 1018.8
20260830134557 76 76 2.0 6.0 0.00 0.00 0.00 75 1017.7
20260830134003 76 59 2.0 6.0 0.00 0.00 0.00 76 1018.9
20260830133722 76 87 2.0 6.0 0.00 0.00 0.00 77 1018.8
20260830133042 75 107 1.0 4.0 0.00 0.00 0.00 78 1017.7
20260830133003 75 107 1.0 4.0 0.00 0.00 0.00 77 1018.9
20260830132501 75 95 2.0 4.0 0.00 0.00 0.00 78 1019.0
20260830131936 75 152 2.0 5.0 0.00 0.00 0.00 77 1019.1
20260830131603 75 75 2.0 5.0 0.00 0.00 0.00 76 1017.9
20260830131409 75 75 2.0 5.0 0.00 0.00 0.00 76 1019.1
20260830130846 75 111 2.0 4.0 0.00 0.00 0.00 76 1019.2
20260830130317 75 140 1.0 3.0 0.00 0.00 0.00 77 1019.2
20260830130053 74 157 1.0 3.0 0.00 0.00 0.00 77 1018.0
20260830125814 74 158 1.0 3.0 0.00 0.00 0.00 78 1019.2
20260830125311 74 158 0.0 3.0 0.00 0.00 0.00 79 1019.2
20260830124813 74 182 0.0 1.0 0.00 0.00 0.00 78 1019.2
20260830124531 74 182 0.0 2.0 0.00 0.00 0.00 78 1018.1
20260830124244 74 217 1.0 2.0 0.00 0.00 0.00 78 1019.3
20260830123720 74 183 1.0 3.0 0.00 0.00 0.00 78 1019.3
20260830123151 73 184 1.0 3.0 0.00 0.00 0.00 80 1019.4
20260830123100 73 273 0.0 3.0 0.00 0.00 0.00 80 1018.2
20260830122650 73 187 1.0 3.0 0.00 0.00 0.00 81 1019.3
20260830122358 72 184 1.0 3.0 0.00 0.00 0.00 82 1019.4
20260830121630 72 184 0.0 2.0 0.00 0.00 0.00 83 1019.4
20260830121529 71 184 0.0 2.0 0.00 0.00 0.00 83 1018.2
20260830121142 71 186 0.0 1.0 0.00 0.00 0.00 85 1019.3
20260830120632 71 186 0.0 0.0 0.00 0.00 0.00 84 1019.3
20260830120109 71 186 0.0 0.0 0.00 0.00 0.00 84 1019.3
20260830120016 70 186 0.0 0.0 0.00 0.00 0.00 84 1018.1
20260830115610 70 186 0.0 0.0 0.00 0.00 0.00 85 1019.2
20260830115331 70 186 0.0 0.0 0.00 0.00 0.00 85 1019.1
20260830114542 70 186 0.0 2.0 0.00 0.00 0.00 85 1019.1
20260830114512 69 186 0.0 2.0 0.00 0.00 0.00 85 1017.8
20260830114016 70 186 0.0 2.0 0.00 0.00 0.00 85 1018.9
20260830113502 70 185 0.0 2.0 0.00 0.00 0.00 85 1018.8
20260830113039 69 273 0.0 1.0 0.00 0.00 0.00 85 1017.7
20260830112959 70 273 0.0 1.0 0.00 0.00 0.00 85 1018.8
20260830112459 70 273 0.0 1.0 0.00 0.00 0.00 85 1018.8
20260830112221 70 273 0.0 1.0 0.00 0.00 0.00 85 1018.7
20260830111703 70 273 0.0 1.0 0.00 0.00 0.00 84 1018.7
20260830111515 69 273 0.0 1.0 0.00 0.00 0.00 84 1017.6
20260830111133 70 273 0.0 1.0 0.00 0.00 0.00 84 1018.8
20260830110406 70 273 0.0 0.0 0.00 0.00 0.00 84 1018.8
20260830110045 70 273 0.0 1.0 0.00 0.00 0.00 84 1017.6
20260830105853 70 273 0.0 1.0 0.00 0.00 0.00 83 1018.7
20260830105355 70 273 0.0 1.0 0.00 0.00 0.00 83 1018.7
20260830104855 71 273 0.0 1.0 0.00 0.00 0.00 83 1018.6
20260830104506 70 182 0.0 1.0 0.00 0.00 0.00 83 1017.5
20260830104327 71 182 0.0 1.0 0.00 0.00 0.00 83 1018.6
20260830103803 71 273 0.0 0.0 0.00 0.00 0.00 83 1018.6
20260830103239 71 273 0.0 0.0 0.00 0.00 0.00 82 1018.5
20260830103006 70 273 0.0 0.0 0.00 0.00 0.00 82 1017.4
20260830102716 71 273 0.0 0.0 0.00 0.00 0.00 82 1018.6
20260830102214 71 273 0.0 0.0 0.00 0.00 0.00 82 1018.5
20260830101715 71 273 0.0 0.0 0.00 0.00 0.00 82 1018.6
20260830101551 71 273 0.0 0.0 0.00 0.00 0.00 82 1017.5
20260830101210 71 273 0.0 0.0 0.00 0.00 0.00 82 1018.6
20260830100652 71 182 0.0 0.0 0.00 0.00 0.00 81 1018.6
20260830100142 71 183 0.0 0.0 0.00 0.00 0.00 81 1018.7
20260830100013 71 183 0.0 0.0 0.00 0.00 0.00 81 1017.5
20260830095907 71 183 0.0 0.0 0.00 0.00 0.00 81 1018.7
20260830095143 71 184 0.0 0.0 0.00 0.00 0.00 81 1018.7
20260830094625 71 184 0.0 0.0 0.00 0.00 0.00 81 1018.6
20260830094545 71 184 0.0 0.0 0.00 0.00 0.00 81 1017.4
20260830094121 71 184 0.0 0.0 0.00 0.00 0.00 81 1018.5
20260830093620 72 184 0.0 0.0 0.00 0.00 0.00 81 1018.5
20260830093315 72 184 0.0 1.0 0.00 0.00 0.00 80 1018.5
20260830093039 71 184 0.0 1.0 0.00 0.00 0.00 80 1017.4
20260830092551 72 184 1.0 2.0 0.00 0.00 0.00 80 1018.5
20260830092029 72 184 1.0 2.0 0.00 0.00 0.00 80 1018.5
20260830091525 72 184 0.0 2.0 0.00 0.00 0.00 80 1018.6
20260830091509 72 184 0.0 2.0 0.00 0.00 0.00 80 1017.4
20260830091224 72 184 0.0 2.0 0.00 0.00 0.00 80 1018.5
20260830090457 72 184 0.0 2.0 0.00 0.00 0.00 80 1018.5
20260830090036 72 184 0.0 2.0 0.00 0.00 0.00 80 1017.4
20260830090000 72 184 0.0 2.0 0.00 0.00 0.00 80 1018.5
20260830085658 72 184 0.0 1.0 0.00 0.00 0.00 80 1018.5
20260830084940 72 184 0.0 0.0 0.00 0.00 0.00 79 1018.5
20260830084707 72 184 0.0 2.0 0.00 0.00 0.00 79 1018.5
20260830084508 72 184 0.0 2.0 0.00 0.00 0.00 79 1017.3
20260830083921 72 184 0.0 2.0 0.00 0.00 0.00 79 1018.6
20260830083423 72 184 0.0 1.0 0.00 0.00 0.00 79 1018.6
20260830083006 72 184 0.0 1.0 0.00 0.00 0.00 79 1017.5
20260830082920 73 184 0.0 1.0 0.00 0.00 0.00 79 1018.6